Temp
4 4 5 5 5 6 7 8 8 8 8 9 9 9 9 10 10 10 10 11 12 11 11 11 12 12 11 12 10 10 11 14 16 16 16 14 14 14 14 14 13 13 12 12 12
4 3 4 4 5 6 6 7 7 7 7 8 8 9 9 9 9 10 10 11 11 11 11 11 11 10 10 10 11 11 12 14 15 15 15 14 13 14 13 13 13 13 12 11 11
3 4 4 4 4 4 6 6 6 7 7 7 8 8 8 9 9 9 10 11 10 11 11 11 11 10 10 10 11 12 12 13 13 14 14 14 13 13 13 13 14 13 12 12 12
4 4 4 5 4 4 5 6 5 6 6 7 8 8 8 8 8 7 9 10 10 10 11 10 11 11 9 10 11 12 12 12 13 13 12 12 13 13 13 13 14 14 13 12 12
3 4 4 4 5 5 5 5 5 5 6 6 6 7 8 8 9 8 9 10 10 10 10 10 10 10 9 10 12 12 12 12 12 12 12 12 12 13 13 13 13 13 12 11 10
3 3 3 4 3 5 6 6 5 5 6 5 5 6 7 8 8 8 9 9 9 9 10 10 10 8 9 10 11 12 12 12 12 12 12 12 12 12 12 12 13 13 12 12 11
2 2 2 3 3 4 4 5 6 5 5 5 5 6 6 8 8 8 9 8 8 9 9 9 8 8 8 9 10 10 11 11 11 12 12 12 12 12 13 12 13 12 12 11 11
1 1 2 2 3 3 3 4 4 5 5 5 5 5 7 7 7 7 8 8 8 8 9 9 9 9 8 9 10 10 10 11 12 12 12 12 12 13 13 13 13 13 12 12 11
-0 0 0 1 1 1 2 2 3 4 4 5 4 4 7 8 8 7 7 8 7 8 8 8 8 8 8 8 8 9 10 11 12 13 13 13 12 12 13 14 13 13 13 12 12
-2 -2 -2 -1 -1 -1 -0 1 1 2 3 3 4 4 6 6 7 8 7 7 7 7 7 8 7 8 8 8 9 10 11 12 12 13 13 14 13 13 13 13 13 13 13 13 12
-3 -3 -2 -2 -2 -1 -1 -0 0 1 2 2 3 5 4 3 6 8 7 7 6 6 7 6 5 7 9 8 8 10 11 12 13 14 14 14 13 13 13 13 13 13 12 12 12
-3 -3 -3 -2 -2 -2 -1 -1 -0 -0 1 3 2 4 4 5 6 6 5 5 5 6 5 5 6 10 9 8 9 10 10 11 11 13 13 14 14 13 13 13 13 13 13 12 12
-3 -3 -3 -3 -2 -2 -2 -2 -2 -1 -1 3 4 3 5 3 4 5 4 4 3 5 5 5 9 8 7 8 9 10 10 11 11 11 12 12 13 13 13 13 12 12 12 12 12
-4 -4 -3 -3 -3 -3 -3 -3 -3 -2 -1 1 4 5 5 4 3 5 2 2 3 4 4 5 7 7 8 8 9 9 10 10 11 11 11 11 13 13 13 13 13 12 12 12 12
-4 -4 -4 -4 -5 -3 -5 -3 -3 -3 -2 2 1 1 3 4 3 3 3 2 3 5 4 5 5 6 7 8 9 9 9 10 10 11 10 11 11 12 12 13 13 13 13 13 12
-5 -5 -5 -5 -5 -4 -4 -3 -4 -3 -3 2 1 -0 -0 -0 2 0 1 0 1 1 2 4 5 6 7 8 8 9 9 10 10 10 10 10 11 11 12 12 13 13 13 13 13
-6 -6 -6 -6 -5 -5 -4 -4 -4 -4 -0 2 1 1 0 0 0 0 0 1 0 1 1 2 4 5 5 6 7 8 9 9 9 10 10 10 11 11 11 12 13 13 13 13 13
-6 -6 -6 -5 -5 -5 -5 -5 -5 -3 -2 2 2 2 2 2 2 2 1 1 0 1 2 3 3 4 5 5 6 7 9 8 7 9 10 10 10 11 11 11 12 13 13 13 12
-5 -6 -6 -5 -6 -5 -5 -5 -5 -4 -3 -1 -0 0 1 2 2 2 2 2 2 2 0 2 3 5 5 5 5 6 6 8 8 7 8 9 11 11 11 12 12 13 13 13 12
-5 -6 -5 -5 -6 -6 -6 -6 -6 -5 -3 -2 -1 0 1 1 2 2 3 1 1 2 2 2 2 4 5 6 6 6 6 7 7 3 4 7 9 10 11 12 13 13 13 12 12
-6 -8 -5 -6 -6 -7 -7 -7 -7 -6 -4 -3 -2 -1 -0 0 1 2 2 3 3 3 2 2 2 1 3 4 5 5 5 6 5 2 2 4 6 8 9 11 12 12 13 13 12
-7 -9 -6 -6 -7 -7 -7 -7 -6 -6 -5 -5 -4 -3 -2 -1 -0 1 1 2 2 2 0 1 -1 1 1 3 4 4 5 6 5 4 3 3 6 10 11 11 10 12 11 12 11
-8 -8 -7 -7 -7 -7 -7 -7 -6 -6 -6 -5 -4 -4 -3 -3 -2 -1 -0 0 1 0 -0 -1 -1 -1 2 2 2 3 4 4 2 5 5 4 4 9 9 10 11 12 11 11 10
-9 -9 -8 -7 -7 -7 -7 -7 -7 -6 -7 -6 -5 -4 -4 -3 -3 -2 -2 -1 -1 -0 -0 -0 -3 -2 -1 0 2 2 4 5 4 3 4 5 5 7 7 9 10 10 10 10 10
-9 -9 -8 -7 -7 -7 -7 -7 -7 -7 -7 -7 -6 -5 -5 -4 -3 -3 -2 -2 -1 -1 -1 -1 -1 -2 -2 -2 -1 1 2 3 5 4 4 5 5 6 6 7 8 9 9 9 9
-10 -9 -9 -7 -8 -6 -7 -7 -7 -7 -6 -6 -6 -5 -5 -5 -4 -4 -3 -3 -2 -2 -1 -1 -1 -2 -4 -3 -2 -1 -0 2 3 3 4 5 6 6 7 7 7 8 8 8 9
-9 -9 -9 -8 -7 -7 -7 -6 -6 -7 -6 -6 -5 -5 -6 -5 -4 -4 -4 -4 -4 -5 -4 -4 -4 -3 -3 -3 -3 -3 0 0 2 4 4 3 4 5 6 7 7 7 8 8 7
Height
3112 3113 3116 3119 3119 3121 3124 3126 3128 3130 3129 3132 3135 3136 3137 3139 3140 3143 3145 3147 3150 3152 3153 3153 3154 3155 3155 3156 3158 3161 3162 3156 3157 3156 3157 3155 3158 3160 3160 3163 3163 3165 3162 3161 3161
3107 3107 3110 3114 3114 3116 3119 3121 3123 3126 3127 3128 3131 3133 3133 3136 3136 3139 3140 3145 3147 3149 3151 3152 3152 3154 3155 3158 3160 3161 3159 3157 3156 3154 3157 3156 3158 3161 3162 3161 3162 3162 3162 3162 3161
3100 3101 3104 3106 3108 3109 3113 3116 3118 3120 3122 3124 3127 3129 3131 3132 3136 3132 3138 3141 3143 3146 3148 3149 3150 3152 3154 3157 3159 3159 3157 3156 3156 3155 3155 3157 3158 3159 3160 3161 3162 3160 3159 3157 3160
3092 3094 3097 3100 3102 3104 3107 3110 3113 3114 3117 3119 3122 3124 3127 3129 3136 3127 3134 3136 3139 3142 3144 3147 3148 3149 3151 3154 3156 3156 3155 3155 3156 3156 3154 3155 3156 3157 3158 3159 3161 3161 3156 3153 3156
3084 3087 3090 3092 3095 3099 3100 3103 3107 3109 3111 3115 3116 3119 3122 3125 3127 3123 3129 3133 3136 3138 3140 3143 3145 3147 3148 3152 3154 3153 3153 3153 3154 3154 3152 3152 3153 3154 3154 3156 3157 3158 3156 3154 3154
3077 3080 3084 3084 3087 3090 3093 3097 3101 3102 3105 3109 3111 3113 3116 3117 3122 3120 3127 3129 3132 3134 3136 3138 3141 3146 3145 3147 3149 3150 3150 3149 3150 3151 3152 3149 3148 3150 3150 3151 3153 3155 3155 3154 3153
3070 3074 3077 3079 3082 3083 3086 3090 3093 3095 3098 3102 3105 3106 3107 3110 3115 3116 3122 3124 3127 3130 3131 3135 3136 3139 3142 3142 3142 3145 3145 3145 3145 3146 3148 3149 3146 3144 3145 3147 3148 3150 3150 3150 3150
3065 3067 3070 3074 3075 3078 3080 3082 3086 3089 3091 3094 3097 3098 3096 3103 3109 3110 3117 3120 3121 3124 3126 3129 3129 3130 3133 3136 3136 3139 3140 3139 3140 3142 3143 3145 3139 3141 3141 3142 3143 3145 3146 3146 3146
3059 3061 3064 3068 3070 3071 3075 3075 3078 3080 3083 3086 3090 3091 3088 3094 3101 3108 3110 3113 3116 3117 3120 3124 3125 3126 3130 3131 3132 3133 3132 3133 3134 3136 3137 3136 3133 3135 3137 3135 3138 3140 3141 3142 3143
3056 3058 3060 3065 3066 3068 3071 3071 3073 3073 3076 3078 3082 3087 3087 3089 3092 3095 3101 3106 3109 3113 3114 3116 3117 3120 3123 3125 3122 3127 3127 3127 3127 3131 3129 3129 3129 3130 3130 3133 3133 3134 3135 3136 3137
3054 3055 3058 3063 3064 3066 3068 3070 3072 3071 3069 3073 3074 3077 3080 3082 3082 3085 3094 3096 3101 3104 3104 3109 3113 3106 3110 3117 3120 3123 3122 3120 3121 3124 3123 3122 3122 3125 3126 3127 3127 3127 3129 3130 3130
3051 3053 3054 3060 3063 3064 3064 3066 3066 3067 3062 3064 3067 3066 3073 3073 3076 3079 3084 3088 3091 3091 3102 3107 3096 3099 3107 3114 3116 3117 3116 3113 3117 3117 3118 3115 3114 3116 3118 3119 3121 3122 3122 3123 3123
3046 3049 3052 3058 3060 3060 3061 3063 3064 3064 3060 3055 3057 3058 3066 3068 3066 3073 3077 3080 3083 3087 3091 3094 3085 3101 3103 3107 3109 3108 3107 3110 3113 3115 3113 3110 3105 3108 3111 3112 3114 3114 3115 3116 3118
3043 3045 3046 3051 3056 3057 3057 3061 3063 3062 3057 3047 3049 3049 3055 3059 3054 3061 3068 3076 3076 3079 3082 3084 3092 3095 3098 3099 3102 3098 3104 3106 3107 3109 3105 3109 3095 3095 3101 3102 3102 3104 3104 3105 3108
3036 3039 3041 3046 3048 3054 3055 3059 3061 3062 3060 3048 3045 3045 3045 3047 3056 3055 3062 3065 3067 3071 3079 3075 3080 3086 3086 3088 3093 3089 3100 3098 3098 3098 3101 3094 3096 3079 3092 3091 3093 3094 3093 3096 3098
3031 3034 3036 3041 3046 3051 3053 3059 3060 3065 3051 3041 3044 3043 3046 3045 3050 3054 3058 3061 3066 3070 3070 3069 3073 3076 3075 3083 3087 3090 3091 3089 3089 3089 3085 3071 3090 3065 3079 3083 3085 3086 3087 3087 3091
3026 3029 3033 3037 3045 3047 3051 3054 3060 3052 3040 3041 3041 3045 3047 3049 3050 3052 3056 3059 3061 3064 3062 3059 3060 3063 3073 3074 3077 3081 3082 3076 3077 3074 3063 3069 3079 3061 3068 3073 3076 3075 3079 3078 3081
3021 3025 3029 3035 3039 3044 3048 3051 3044 3030 3035 3036 3042 3045 3044 3046 3047 3051 3052 3054 3055 3059 3058 3056 3050 3053 3057 3057 3062 3068 3070 3067 3064 3060 3057 3063 3065 3048 3062 3066 3066 3070 3071 3068 3071
3016 3019 3023 3031 3036 3040 3042 3034 3024 3030 3035 3039 3040 3040 3041 3042 3046 3046 3047 3048 3050 3051 3053 3051 3042 3051 3049 3053 3061 3049 3057 3063 3059 3060 3060 3053 3048 3047 3053 3053 3057 3061 3062 3060 3063
3011 3013 3017 3026 3031 3033 3029 3011 3020 3028 3033 3037 3038 3040 3037 3039 3040 3041 3041 3043 3043 3046 3048 3043 3039 3041 3039 3048 3044 3045 3052 3055 3049 3056 3056 3051 3040 3039 3049 3045 3051 3053 3052 3053 3054
3006 3006 3014 3020 3024 3021 3004 3007 3017 3024 3030 3035 3035 3035 3034 3035 3036 3034 3034 3038 3039 3039 3042 3040 3037 3025 3039 3029 3037 3041 3036 3042 3043 3053 3047 3047 3032 3033 3041 3038 3041 3045 3044 3041 3043
3001 3001 3012 3014 3013 3004 2998 3006 3013 3017 3025 3025 3029 3030 3029 3030 3030 3029 3029 3030 3033 3033 3032 3029 3024 3021 3012 3022 3024 3027 3028 3031 3027 3032 3031 3032 3018 3026 3027 3030 3030 3033 3034 3033 3035
2994 2996 3004 3006 2997 2996 2999 3000 3004 3008 3014 3021 3020 3024 3025 3021 3023 3023 3023 3025 3027 3029 3024 3023 3021 3018 3006 3013 3014 3012 3013 3017 3018 3018 3017 3022 3019 3013 3025 3026 3024 3024 3031 3029 3030
2990 2990 2992 2994 2992 2994 2996 2992 2993 3000 3003 3013 3012 3018 3014 3013 3017 3015 3017 3018 3019 3018 3022 3023 3017 3014 3011 3006 3009 3006 3005 3007 3010 3007 3008 3008 3012 2998 3013 3021 3018 3019 3024 3023 3024
2980 2978 2982 2981 2983 2985 2988 2987 2988 2991 3000 3003 3003 3002 3006 3008 3009 3008 3008 3008 3010 3011 3012 3015 3007 3010 3006 3000 3001 2999 2999 2994 2994 2996 2997 3000 3003 2990 3005 3014 3016 3016 3019 3020 3020
2971 2972 2977 2976 2980 2980 2979 2976 2981 2985 2994 2990 2992 2997 3002 3002 2997 2999 3005 3007 3006 3008 3006 3009 3003 2996 2990 2995 2991 2987 2990 2988 2987 2988 2990 2991 2989 2993 2993 3006 3006 3006 3011 3013 3012
2962 2965 2970 2966 2970 2972 2967 2968 2969 2982 2981 2983 2988 2990 2990 2983 2992 2997 2999 2999 3000 2999 2997 2998 2998 2996 2988 2989 2984 2981 2981 2982 2979 2980 2981 2979 2981 2982 2989 2991 2993 2999 2999 3000 3004
Wind_Speed
33 31 30 31 27 26 26 27 26 25 22 22 23 23 20 21 21 21 22 23 16 14 10 7 4 3 2 2 4 8 13 16 11 8 2 8 5 9 9 5 10 7 7 14 7
37 32 33 31 30 30 29 29 27 28 25 24 23 24 22 23 22 23 26 23 20 17 14 10 6 6 7 7 6 9 13 11 9 4 3 4 6 8 11 13 7 13 9 15 12
37 37 38 35 34 31 32 32 30 29 28 26 26 25 24 24 20 27 23 24 23 21 18 15 11 10 11 10 12 11 18 11 11 8 8 4 6 9 9 12 13 17 19 22 18
34 35 36 37 35 36 37 38 33 32 31 29 28 26 26 23 9 16 24 24 25 25 22 19 15 12 12 12 13 17 16 14 11 9 10 9 9 10 14 15 9 6 24 20 17
33 34 35 34 33 36 37 41 39 36 34 33 29 30 28 29 26 29 22 22 24 26 25 22 19 14 16 15 14 18 18 16 13 13 14 12 14 14 17 14 17 11 11 13 16
34 33 33 33 33 34 35 38 39 39 39 38 33 32 32 34 28 33 27 25 18 23 25 25 22 15 19 19 19 18 14 19 19 18 16 18 16 17 19 17 17 18 19 22 18
32 33 34 35 35 34 35 36 37 38 38 41 40 36 37 38 31 31 32 27 28 26 22 24 20 19 15 18 21 20 23 21 21 19 20 18 24 25 19 19 22 22 24 23 21
29 30 31 32 33 33 34 35 35 36 36 36 37 41 45 42 36 36 30 29 29 28 27 24 30 31 28 24 20 16 19 26 25 23 24 24 31 25 23 24 22 24 22 26 22
25 26 27 29 28 28 29 31 32 34 35 36 34 37 45 46 43 35 35 35 30 29 29 29 30 27 26 24 25 23 30 28 28 24 25 33 29 25 17 21 21 23 23 26 25
18 18 18 17 14 15 16 20 24 29 31 33 35 33 36 31 33 39 40 37 34 31 31 31 32 32 28 25 30 24 30 33 33 27 27 29 31 29 27 18 22 24 24 25 27
16 16 16 15 13 14 15 16 20 23 24 25 31 36 24 23 36 45 39 30 38 35 40 28 26 38 41 31 30 30 30 34 34 29 27 29 30 28 28 26 27 26 25 25 25
20 19 19 17 15 15 15 16 20 22 28 27 26 35 34 43 42 34 28 34 34 42 32 26 40 47 39 28 32 33 34 40 37 34 34 28 33 27 28 30 30 29 28 26 27
22 22 22 17 15 14 14 17 14 17 26 34 31 34 29 36 46 41 26 26 25 35 35 39 52 39 34 30 34 38 39 38 35 31 36 36 40 39 36 34 33 31 33 37 33
24 24 24 17 16 12 13 12 10 14 18 29 28 31 29 32 45 46 31 27 27 35 34 42 39 38 39 36 35 42 38 37 36 33 35 35 34 39 38 39 40 41 39 37 38
25 24 23 19 13 10 12 8 6 10 7 3 14 13 16 29 7 15 19 39 42 44 22 34 40 40 45 44 40 43 34 40 38 37 38 43 35 42 32 37 37 36 39 31 32
23 23 22 19 16 15 14 8 4 2 12 6 9 10 8 14 17 15 9 20 27 33 33 37 38 42 50 41 40 41 39 36 36 38 27 56 35 50 40 38 39 38 37 41 36
22 23 22 19 11 13 9 8 8 14 5 5 11 8 9 11 15 16 18 22 25 28 36 42 43 46 38 41 40 42 42 30 23 23 22 46 38 52 40 35 25 38 41 41 36
25 26 23 20 17 13 13 19 20 12 26 5 7 10 15 15 15 16 19 25 28 31 30 32 36 47 39 47 45 42 45 35 25 20 22 43 38 57 46 41 40 34 35 34 30
23 27 28 23 21 19 24 33 21 18 15 10 17 24 23 18 18 18 22 27 27 35 41 32 47 34 36 48 42 55 48 41 36 39 27 31 34 46 45 48 41 35 35 30 30
22 27 29 27 24 27 36 54 26 25 18 15 20 16 22 27 29 30 27 21 24 25 35 47 46 45 43 32 44 50 55 37 31 10 26 29 48 43 34 38 35 37 35 38 40
18 20 20 23 26 35 55 48 37 38 23 20 24 28 30 30 27 32 32 32 33 29 27 33 45 55 41 52 41 48 48 49 26 36 6 15 32 52 46 41 46 42 38 45 37
18 26 18 22 37 46 56 52 46 34 23 27 33 32 34 32 34 34 34 31 26 28 25 32 24 38 48 52 49 50 43 50 40 35 49 36 36 36 21 21 16 21 23 33 31
22 25 22 29 45 49 47 52 48 41 35 33 37 33 33 38 39 37 35 33 32 23 22 25 11 14 28 42 42 49 54 48 34 51 40 25 40 59 52 48 40 41 23 25 27
26 26 30 35 43 45 49 52 51 48 45 38 37 32 39 41 37 40 37 35 37 34 29 31 29 26 18 28 26 29 43 45 44 38 46 45 50 69 47 28 6 8 14 22 29
30 35 34 26 45 45 44 48 47 45 38 38 41 46 41 38 38 38 39 38 37 37 39 36 39 35 36 36 35 40 38 43 44 44 46 42 50 63 56 45 43 32 34 31 31
39 41 40 41 39 36 50 54 47 44 36 42 45 41 40 44 48 44 35 38 40 33 27 34 42 42 43 35 38 42 42 45 48 41 50 49 49 61 59 44 49 44 37 30 33
37 42 43 46 46 41 45 47 50 41 43 44 42 41 44 50 44 43 43 43 40 34 36 38 32 30 29 30 27 26 46 46 53 47 47 44 55 55 51 55 53 46 47 46 33
Wind_Direction
244 246 249 252 251 254 256 256 257 258 251 252 251 250 248 235 232 230 233 233 240 246 246 246 251 223 192 258 195 231 262 255 270 255 204 239 218 224 214 174 193 221 272 186 208
248 245 245 246 247 251 254 254 254 258 258 254 253 251 251 247 239 234 233 236 242 241 247 246 252 289 266 267 254 248 255 293 327 46 274 258 212 238 231 219 229 200 211 221 234
252 250 247 246 248 249 252 255 253 252 256 257 255 255 255 250 252 251 236 233 237 241 244 246 238 235 254 253 245 248 260 280 317 282 242 269 262 224 230 240 235 239 249 254 248
249 251 249 251 248 250 251 254 253 253 255 252 256 255 254 253 233 246 245 236 234 237 240 245 244 246 253 254 254 259 253 275 273 288 260 250 250 248 245 241 261 254 242 238 252
246 247 249 249 251 249 249 252 254 253 254 254 251 254 253 252 238 248 241 248 239 236 238 241 244 247 249 253 259 250 259 255 268 264 269 262 249 248 248 243 244 245 224 231 243
248 249 251 252 251 251 250 252 251 251 253 258 253 252 252 251 249 252 248 242 246 241 236 237 237 245 253 249 250 254 258 259 254 260 257 264 260 257 252 243 241 239 241 244 240
249 250 251 251 253 252 251 249 251 251 249 252 257 251 252 247 249 251 252 246 245 242 241 232 239 224 249 260 254 256 259 261 258 249 252 255 258 251 257 245 253 242 246 243 235
253 252 252 251 252 254 254 254 252 251 252 249 250 254 253 253 245 250 249 249 248 244 242 244 237 234 231 226 234 255 257 257 257 256 253 246 253 251 263 248 246 244 243 252 247
249 252 254 255 255 257 259 259 259 257 253 254 249 251 258 256 251 250 250 248 247 244 241 239 243 246 247 248 252 247 254 256 262 256 251 238 247 260 266 241 233 243 247 251 247
239 242 244 249 251 256 262 264 266 261 259 255 253 250 250 263 259 251 245 245 244 245 243 238 239 243 247 230 236 240 247 254 255 255 261 239 246 259 251 248 240 248 245 244 248
236 239 241 245 255 267 277 281 278 273 265 263 252 246 242 242 247 254 249 244 238 238 240 240 228 234 239 233 242 247 253 257 257 257 248 251 246 244 254 255 244 254 242 244 247
242 246 250 254 261 269 278 279 280 280 282 267 261 257 242 253 252 249 243 234 235 234 232 223 233 244 247 237 242 245 249 253 260 261 270 266 259 253 247 252 251 250 254 253 253
248 250 253 255 262 269 273 274 287 291 290 276 267 261 257 248 251 245 238 224 216 235 223 227 243 246 239 238 242 245 247 252 256 262 264 268 264 257 253 252 252 250 249 248 251
246 251 258 264 262 267 267 273 296 305 308 284 280 265 249 249 250 248 222 228 217 226 229 229 240 241 243 239 238 248 246 254 257 260 258 254 268 255 253 251 249 253 254 258 251
246 248 252 251 251 230 243 273 289 323 312 300 226 255 246 230 234 274 245 228 233 234 224 229 230 235 242 240 240 245 255 257 262 254 258 257 256 262 257 259 256 255 254 254 265
241 242 243 242 240 243 244 251 232 224 245 232 183 207 199 250 243 222 271 231 231 246 239 243 236 236 235 239 246 250 257 253 254 259 253 252 245 264 252 253 258 257 253 251 252
237 236 237 233 229 239 237 217 215 217 247 235 205 215 232 243 258 255 235 233 227 233 242 241 239 241 242 244 239 243 249 256 239 239 242 251 245 254 254 251 269 261 255 256 252
235 237 238 236 227 226 213 194 224 247 230 140 136 261 258 258 255 244 238 236 237 235 251 245 252 237 232 235 237 237 237 235 246 238 249 250 245 246 255 256 253 260 260 258 237
233 234 236 232 228 220 217 216 228 239 255 259 278 273 264 261 255 256 250 247 248 243 240 250 258 256 252 242 236 240 249 247 266 252 272 265 260 256 257 259 260 256 257 243 233
231 234 233 230 225 225 226 232 233 237 252 265 266 266 272 265 262 259 254 251 251 254 247 253 257 253 252 256 244 245 243 250 233 244 243 254 262 258 261 266 266 252 247 240 245
232 232 224 215 221 222 228 236 242 244 240 256 262 263 266 268 267 264 262 260 262 258 260 258 253 262 258 257 254 240 240 237 241 228 256 247 255 253 255 253 266 254 259 246 238
234 229 217 210 215 227 234 235 239 243 248 260 253 262 263 267 266 265 263 262 273 265 271 263 289 263 257 249 255 256 256 239 220 221 224 232 254 228 245 251 257 254 293 238 230
237 242 219 219 225 231 238 243 241 242 246 252 251 257 260 263 266 262 264 262 266 270 268 280 277 274 283 253 252 255 252 252 269 228 230 226 240 258 256 267 280 271 263 245 232
233 236 232 224 237 238 240 244 250 252 250 249 250 256 256 260 259 264 264 264 264 266 263 272 277 267 260 276 274 269 258 253 243 242 233 234 241 253 248 236 220 326 258 231 233
233 232 234 231 234 237 242 249 246 249 251 249 249 245 251 261 262 260 256 258 260 265 267 268 279 278 282 288 280 269 268 265 247 240 247 237 238 255 252 253 261 278 265 252 255
227 233 235 244 245 245 239 244 247 251 245 248 247 253 251 252 252 259 259 262 267 266 273 268 269 283 287 281 281 282 273 267 266 259 247 247 250 249 249 256 256 251 260 258 258
245 239 237 244 240 238 244 250 252 249 252 250 250 256 253 249 254 256 261 260 266 272 273 267 274 274 277 291 300 295 261 264 265 264 256 257 247 251 260 256 252 259 256 257 264